星链-11567 (STARLINK-11567)

导读

STARLINK-11567是美国太空探索技术公司(SpaceX)星链互联网星座的一员,于2025年2月8日由美国发射入轨。作为低轨卫星,它运行在近地轨道,主要为全球范围提供高速卫星互联网接入服务,尤其聚焦覆盖偏远地区、网络基础设施薄弱区域,支撑宽带通信、应急联网等场景,是星链星座扩展全球网络覆盖的重要节点。

基本信息
目录编号:
62909
目录名称:
STARLINK-11567
国际标识:
2025-027C
轨道中心:
EARTH
卫星名称:
星链-11567
卫星全名:
星链-11567 (STARLINK-11567)
卫星状态:
在轨 (已飞行491 天)
发射日期:
2025-02-08 UTC
国别 :
美国 (US)
星等 :
--
轨道信息
数据来源 国际轨道数据
星历时间: 2026-06-14T12:17:34+0800
12小时前
查看轨道信息
半长轴: 6734.378km
偏心率: 0.000134
轨道倾角: 42.999°
近地点辐角 233.189°
升交点赤经 126.393°
平近点角 126.886°
近地点: 355.338km
远地点: 357.144km
周期: 91.666分钟
每日圈数: 15.709289
详细信息
固有亮度:
5
最大亮度:
2.5
卫星平台:
Starlink V1.0
覆盖范围:
全球
运营商:
太空探索技术公司
运营商所在国:
美国
制造商(研发单位):
太空探索技术公司
制造商所在国:
美国
使用方式:
暂无
卫星简介
Starlink 计划是 SpaceX 推出的全球卫星互联网项目,通过发射低轨道卫星,为全球尤其是偏远地区提供高速、低延迟的互联网服务。自 2019 年起,Starlink 已部署数千颗卫星,旨在缩小全球数字鸿沟,推动互联网普及。该项目还为军事、航空等行业提供通信支持,带来广泛经济效益。
2D轨道图
3D轨道图
轨道高度分析图
轨道倾角分析图
轨道综合分析图
查看轨道综合分析图